Retour au catalogue

DX 1

ActifRadio amateurPO
NORAD 40071·PAYLOAD·🇷🇺 Russia

Lancé Jul 8, 2014 depuis Baikonur Cosmodrome

Loading…

Prochains Passages (prochaines 24 heures)

TLE

FraisSource: Space-Track

Époque: Sep 14, 2026, 14:29 UTC

1 40071U 14037C   26257.60401219  .00001480  00000-0  15911-3 0  9995
2 40071  98.3972 224.7936 0007055 353.9159   6.1971 14.90213500659422

Suivez DX 1 en temps réel avec AllMySat

Download on the App Store